| time (UTC) | temp F | wind direction | speed MPH | gust MPH | rain 1hr in | rain 24hr in | rain mn in | humidity % | barometer mb |
| 20260505022524 | 61 | 0 | 0.0 | 0.0 | 0.00 | 0.00 | 0.00 | 64 | 1013.1 |
| 20260505022315 | 61 | 250 | 0.0 | 0.0 | 0.00 | 0.00 | 0.00 | 64 | 1012.4 |
| 20260505022024 | 61 | 0 | 0.0 | 0.0 | 0.00 | 0.00 | 0.00 | 63 | 1013.1 |
| 20260505021812 | 61 | 250 | 0.0 | 0.0 | 0.00 | 0.00 | 0.00 | 63 | 1012.2 |
| 20260505021524 | 62 | 0 | 0.0 | 0.0 | 0.00 | 0.00 | 0.00 | 62 | 1013.0 |
| 20260505021309 | 62 | 253 | 0.0 | 0.0 | 0.00 | 0.00 | 0.00 | 62 | 1012.3 |
| 20260505021025 | 62 | 0 | 0.0 | 0.0 | 0.00 | 0.00 | 0.00 | 62 | 1013.1 |
| 20260505020805 | 62 | 250 | 0.0 | 0.0 | 0.00 | 0.00 | 0.00 | 62 | 1012.2 |
| 20260505020503 | 62 | 0 | 0.0 | 0.0 | 0.00 | 0.00 | 0.00 | 61 | 1013.4 |
| 20260505020300 | 62 | 248 | 0.0 | 0.0 | 0.00 | 0.00 | 0.00 | 61 | 1012.2 |
| 20260505020003 | 62 | 0 | 0.0 | 0.0 | 0.00 | 0.00 | 0.00 | 61 | 1013.1 |
| 20260505015757 | 62 | 242 | 0.0 | 0.0 | 0.00 | 0.00 | 0.00 | 61 | 1012.1 |
| 20260505015503 | 62 | 0 | 0.0 | 0.0 | 0.00 | 0.00 | 0.00 | 61 | 1013.1 |
| 20260505015254 | 62 | 256 | 0.0 | 0.0 | 0.00 | 0.00 | 0.00 | 61 | 1012.1 |
| 20260505015003 | 62 | 0 | 0.0 | 0.0 | 0.00 | 0.00 | 0.00 | 61 | 1012.9 |
| 20260505014751 | 62 | 251 | 0.0 | 0.0 | 0.00 | 0.00 | 0.00 | 61 | 1012.2 |
| 20260505014524 | 62 | 0 | 0.0 | 0.0 | 0.00 | 0.00 | 0.00 | 61 | 1012.8 |
| 20260505014249 | 62 | 250 | 0.0 | 0.0 | 0.00 | 0.00 | 0.00 | 61 | 1012.1 |
| 20260505014003 | 62 | 0 | 0.0 | 0.0 | 0.00 | 0.00 | 0.00 | 61 | 1012.9 |
| 20260505013745 | 62 | 245 | 0.0 | 0.0 | 0.00 | 0.00 | 0.00 | 61 | 1011.9 |
| 20260505013503 | 63 | 0 | 0.0 | 0.0 | 0.00 | 0.00 | 0.00 | 61 | 1013.0 |
| 20260505013243 | 63 | 250 | 0.0 | 0.0 | 0.00 | 0.00 | 0.00 | 60 | 1012.0 |
| 20260505013003 | 63 | 0 | 0.0 | 0.0 | 0.00 | 0.00 | 0.00 | 60 | 1012.9 |
| 20260505012741 | 63 | 250 | 0.0 | 0.0 | 0.00 | 0.00 | 0.00 | 60 | 1012.0 |
| 20260505012503 | 63 | 0 | 0.0 | 0.0 | 0.00 | 0.00 | 0.00 | 60 | 1012.8 |
| 20260505012238 | 64 | 250 | 0.0 | 0.0 | 0.00 | 0.00 | 0.00 | 59 | 1011.9 |
| 20260505012024 | 64 | 0 | 0.0 | 0.0 | 0.00 | 0.00 | 0.00 | 59 | 1012.6 |
| 20260505011733 | 64 | 250 | 0.0 | 0.0 | 0.00 | 0.00 | 0.00 | 58 | 1011.9 |
| 20260505011504 | 64 | 0 | 0.0 | 0.0 | 0.00 | 0.00 | 0.00 | 57 | 1012.8 |
| 20260505011231 | 65 | 245 | 0.0 | 0.0 | 0.00 | 0.00 | 0.00 | 56 | 1011.8 |
| 20260505011024 | 65 | 0 | 0.0 | 0.0 | 0.00 | 0.00 | 0.00 | 55 | 1012.6 |
| 20260505010726 | 65 | 245 | 0.0 | 0.0 | 0.00 | 0.00 | 0.00 | 55 | 1011.5 |
| 20260505010503 | 65 | 0 | 0.0 | 0.0 | 0.00 | 0.00 | 0.00 | 54 | 1012.4 |
| 20260505010223 | 66 | 246 | 0.0 | 0.0 | 0.00 | 0.00 | 0.00 | 54 | 1011.7 |
| 20260505010024 | 66 | 235 | 0.0 | 1.0 | 0.00 | 0.00 | 0.00 | 54 | 1012.6 |
| 20260505005719 | 66 | 250 | 0.0 | 0.0 | 0.00 | 0.00 | 0.00 | 52 | 1011.7 |
| 20260505005503 | 66 | 222 | 1.0 | 3.0 | 0.00 | 0.00 | 0.00 | 52 | 1012.6 |
| 20260505005216 | 67 | 249 | 0.0 | 1.0 | 0.00 | 0.00 | 0.00 | 51 | 1011.5 |
| 20260505005024 | 67 | 231 | 1.0 | 3.0 | 0.00 | 0.00 | 0.00 | 51 | 1012.4 |
| 20260505004713 | 67 | 238 | 1.0 | 3.0 | 0.00 | 0.00 | 0.00 | 51 | 1011.6 |
| 20260505004503 | 66 | 243 | 1.0 | 2.0 | 0.00 | 0.00 | 0.00 | 52 | 1012.2 |
| 20260505004210 | 67 | 244 | 0.0 | 1.0 | 0.00 | 0.00 | 0.00 | 51 | 1011.4 |
| 20260505004024 | 67 | 239 | 0.0 | 2.0 | 0.00 | 0.00 | 0.00 | 52 | 1012.4 |
| 20260505003707 | 67 | 234 | 0.0 | 1.0 | 0.00 | 0.00 | 0.00 | 53 | 1011.5 |
| 20260505003503 | 67 | 242 | 0.0 | 2.0 | 0.00 | 0.00 | 0.00 | 52 | 1012.4 |
| 20260505003205 | 67 | 248 | 0.0 | 1.0 | 0.00 | 0.00 | 0.00 | 53 | 1011.5 |
| 20260505003003 | 67 | 238 | 0.0 | 2.0 | 0.00 | 0.00 | 0.00 | 53 | 1012.3 |
| 20260505002700 | 67 | 240 | 0.0 | 2.0 | 0.00 | 0.00 | 0.00 | 52 | 1011.4 |
| 20260505002503 | 67 | 237 | 0.0 | 3.0 | 0.00 | 0.00 | 0.00 | 52 | 1012.2 |
| 20260505002159 | 67 | 251 | 1.0 | 1.0 | 0.00 | 0.00 | 0.00 | 51 | 1011.3 |
| 20260505002003 | 67 | 232 | 0.0 | 3.0 | 0.00 | 0.00 | 0.00 | 51 | 1012.1 |
| 20260505001655 | 68 | 249 | 0.0 | 1.0 | 0.00 | 0.00 | 0.00 | 51 | 1011.3 |
| 20260505001503 | 68 | 229 | 1.0 | 3.0 | 0.00 | 0.00 | 0.00 | 50 | 1012.2 |
| 20260505001153 | 68 | 236 | 0.0 | 1.0 | 0.00 | 0.00 | 0.00 | 50 | 1011.3 |
| 20260505001003 | 68 | 232 | 0.0 | 3.0 | 0.00 | 0.00 | 0.00 | 50 | 1012.3 |
| 20260505000650 | 68 | 235 | 0.0 | 2.0 | 0.00 | 0.00 | 0.00 | 49 | 1011.1 |
| 20260505000524 | 68 | 237 | 0.0 | 2.0 | 0.00 | 0.00 | 0.00 | 49 | 1012.0 |
| 20260505000148 | 69 | 246 | 0.0 | 0.0 | 0.00 | 0.00 | 0.00 | 47 | 1011.1 |
| 20260505000003 | 69 | 232 | 0.0 | 2.0 | 0.00 | 0.00 | 0.00 | 47 | 1012.1 |
| 20260504235644 | 69 | 244 | 0.0 | 0.0 | 0.00 | 0.00 | 0.00 | 46 | 1011.2 |
| 20260504235503 | 69 | 224 | 1.0 | 3.0 | 0.00 | 0.00 | 0.00 | 46 | 1011.8 |
| 20260504235140 | 69 | 230 | 1.0 | 2.0 | 0.00 | 0.00 | 0.00 | 45 | 1011.3 |
| 20260504235003 | 69 | 220 | 1.0 | 3.0 | 0.00 | 0.00 | 0.00 | 45 | 1012.1 |
| 20260504234638 | 70 | 241 | 0.0 | 1.0 | 0.00 | 0.00 | 0.00 | 44 | 1011.2 |
| 20260504234503 | 70 | 241 | 0.0 | 4.0 | 0.00 | 0.00 | 0.00 | 43 | 1012.1 |
| 20260504234135 | 70 | 246 | 0.0 | 0.0 | 0.00 | 0.00 | 0.00 | 43 | 1011.1 |
| 20260504234003 | 70 | 238 | 1.0 | 4.0 | 0.00 | 0.00 | 0.00 | 43 | 1012.2 |
| 20260504233631 | 70 | 245 | 1.0 | 5.0 | 0.00 | 0.00 | 0.00 | 42 | 1010.9 |
| 20260504233503 | 70 | 238 | 1.0 | 3.0 | 0.00 | 0.00 | 0.00 | 42 | 1012.0 |
| 20260504233127 | 71 | 193 | 2.0 | 2.0 | 0.00 | 0.00 | 0.00 | 42 | 1011.2 |
| 20260504233003 | 71 | 241 | 1.0 | 3.0 | 0.00 | 0.00 | 0.00 | 42 | 1011.9 |
| 20260504232625 | 71 | 250 | 1.0 | 1.0 | 0.00 | 0.00 | 0.00 | 42 | 1011.3 |
| 20260504232503 | 71 | 243 | 1.0 | 4.0 | 0.00 | 0.00 | 0.00 | 42 | 1012.1 |
| 20260504232121 | 71 | 248 | 1.0 | 3.0 | 0.00 | 0.00 | 0.00 | 42 | 1011.0 |
| 20260504232003 | 71 | 238 | 1.0 | 7.0 | 0.00 | 0.00 | 0.00 | 43 | 1012.3 |
| 20260504231618 | 71 | 239 | 1.0 | 3.0 | 0.00 | 0.00 | 0.00 | 41 | 1011.2 |
| 20260504231503 | 71 | 234 | 2.0 | 7.0 | 0.00 | 0.00 | 0.00 | 41 | 1011.9 |
| 20260504231114 | 71 | 247 | 1.0 | 2.0 | 0.00 | 0.00 | 0.00 | 41 | 1011.1 |
| 20260504231003 | 71 | 237 | 1.0 | 6.0 | 0.00 | 0.00 | 0.00 | 42 | 1011.8 |
| 20260504230610 | 72 | 293 | 2.0 | 3.0 | 0.00 | 0.00 | 0.00 | 40 | 1011.1 |
| 20260504230503 | 72 | 238 | 1.0 | 3.0 | 0.00 | 0.00 | 0.00 | 41 | 1011.9 |
| 20260504230109 | 72 | 211 | 1.0 | 3.0 | 0.00 | 0.00 | 0.00 | 41 | 1011.0 |
| 20260504230003 | 72 | 236 | 1.0 | 4.0 | 0.00 | 0.00 | 0.00 | 41 | 1011.8 |
| 20260504225607 | 72 | 231 | 1.0 | 2.0 | 0.00 | 0.00 | 0.00 | 41 | 1011.2 |
| 20260504225524 | 72 | 232 | 1.0 | 6.0 | 0.00 | 0.00 | 0.00 | 40 | 1012.0 |
| 20260504225103 | 72 | 242 | 1.0 | 6.0 | 0.00 | 0.00 | 0.00 | 40 | 1011.1 |
| 20260504225024 | 72 | 227 | 2.0 | 6.0 | 0.00 | 0.00 | 0.00 | 40 | 1011.9 |
| 20260504224600 | 72 | 246 | 2.0 | 3.0 | 0.00 | 0.00 | 0.00 | 40 | 1011.0 |
| 20260504224503 | 72 | 218 | 2.0 | 8.0 | 0.00 | 0.00 | 0.00 | 40 | 1011.8 |
| 20260504224057 | 72 | 233 | 1.0 | 8.0 | 0.00 | 0.00 | 0.00 | 39 | 1011.1 |
| 20260504224024 | 72 | 224 | 2.0 | 8.0 | 0.00 | 0.00 | 0.00 | 39 | 1011.8 |
| 20260504223554 | 73 | 270 | 2.0 | 3.0 | 0.00 | 0.00 | 0.00 | 40 | 1011.1 |
| 20260504223503 | 72 | 235 | 2.0 | 7.0 | 0.00 | 0.00 | 0.00 | 40 | 1012.0 |
| 20260504223050 | 73 | 281 | 3.0 | 7.0 | 0.00 | 0.00 | 0.00 | 39 | 1011.2 |
| 20260504223003 | 73 | 233 | 2.0 | 7.0 | 0.00 | 0.00 | 0.00 | 39 | 1012.1 |
| 20260504222547 | 73 | 243 | 0.0 | 2.0 | 0.00 | 0.00 | 0.00 | 39 | 1011.1 |
| 20260504222524 | 73 | 224 | 2.0 | 11.0 | 0.00 | 0.00 | 0.00 | 39 | 1012.0 |
| 20260504222044 | 73 | 208 | 2.0 | 5.0 | 0.00 | 0.00 | 0.00 | 38 | 1011.3 |
| 20260504222003 | 73 | 213 | 3.0 | 14.0 | 0.00 | 0.00 | 0.00 | 38 | 1011.9 |
| 20260504221542 | 74 | 207 | 7.0 | 14.0 | 0.00 | 0.00 | 0.00 | 38 | 1011.0 |
| 20260504221503 | 74 | 228 | 3.0 | 14.0 | 0.00 | 0.00 | 0.00 | 37 | 1012.0 |
| 20260504221038 | 74 | 283 | 2.0 | 3.0 | 0.00 | 0.00 | 0.00 | 38 | 1011.1 |
| 20260504221024 | 74 | 251 | 3.0 | 10.0 | 0.00 | 0.00 | 0.00 | 38 | 1012.1 |
| 20260504220535 | 74 | 249 | 2.0 | 6.0 | 0.00 | 0.00 | 0.00 | 37 | 1011.1 |
| 20260504220503 | 74 | 254 | 4.0 | 11.0 | 0.00 | 0.00 | 0.00 | 37 | 1012.1 |
| 20260504220032 | 74 | 250 | 6.0 | 8.0 | 0.00 | 0.00 | 0.00 | 37 | 1011.1 |
| 20260504220024 | 74 | 250 | 3.0 | 11.0 | 0.00 | 0.00 | 0.00 | 37 | 1012.0 |
| 20260504215528 | 75 | 255 | 7.0 | 9.0 | 0.00 | 0.00 | 0.00 | 36 | 1011.2 |
| 20260504215503 | 75 | 234 | 2.0 | 4.0 | 0.00 | 0.00 | 0.00 | 37 | 1012.1 |
| 20260504215026 | 75 | 263 | 3.0 | 5.0 | 0.00 | 0.00 | 0.00 | 37 | 1011.3 |
| 20260504215003 | 75 | 236 | 3.0 | 15.0 | 0.00 | 0.00 | 0.00 | 37 | 1012.4 |
| 20260504214521 | 74 | 239 | 0.0 | 2.0 | 0.00 | 0.00 | 0.00 | 37 | 1011.3 |
| 20260504214503 | 74 | 241 | 3.0 | 15.0 | 0.00 | 0.00 | 0.00 | 36 | 1012.0 |
| 20260504214018 | 74 | 228 | 10.0 | 15.0 | 0.00 | 0.00 | 0.00 | 35 | 1011.4 |
| 20260504214003 | 74 | 235 | 2.0 | 15.0 | 0.00 | 0.00 | 0.00 | 35 | 1012.1 |
| 20260504213514 | 75 | 281 | 3.0 | 5.0 | 0.00 | 0.00 | 0.00 | 36 | 1011.3 |
| 20260504213503 | 75 | 238 | 3.0 | 13.0 | 0.00 | 0.00 | 0.00 | 36 | 1012.3 |
| 20260504213012 | 74 | 208 | 1.0 | 8.0 | 0.00 | 0.00 | 0.00 | 38 | 1011.4 |
| 20260504213003 | 74 | 242 | 3.0 | 13.0 | 0.00 | 0.00 | 0.00 | 37 | 1012.2 |
| 20260504212507 | 75 | 219 | 2.0 | 6.0 | 0.00 | 0.00 | 0.00 | 37 | 1011.5 |
| 20260504212503 | 75 | 238 | 2.0 | 8.0 | 0.00 | 0.00 | 0.00 | 38 | 1012.1 |
| 20260504212024 | 75 | 232 | 2.0 | 8.0 | 0.00 | 0.00 | 0.00 | 38 | 1012.1 |
| 20260504212005 | 75 | 251 | 1.0 | 5.0 | 0.00 | 0.00 | 0.00 | 38 | 1011.2 |
| 20260504211503 | 74 | 214 | 3.0 | 8.0 | 0.00 | 0.00 | 0.00 | 37 | 1012.2 |
| 20260504211501 | 74 | 243 | 5.0 | 7.0 | 0.00 | 0.00 | 0.00 | 36 | 1011.4 |
| 20260504211024 | 74 | 220 | 2.0 | 8.0 | 0.00 | 0.00 | 0.00 | 38 | 1012.1 |
| 20260504210959 | 75 | 179 | 4.0 | 5.0 | 0.00 | 0.00 | 0.00 | 37 | 1011.1 |
| 20260504210503 | 75 | 247 | 2.0 | 9.0 | 0.00 | 0.00 | 0.00 | 37 | 1012.1 |
| 20260504210456 | 75 | 239 | 2.0 | 3.0 | 0.00 | 0.00 | 0.00 | 37 | 1011.2 |
| 20260504210024 | 75 | 241 | 2.0 | 9.0 | 0.00 | 0.00 | 0.00 | 36 | 1012.0 |
| 20260504205952 | 75 | 260 | 4.0 | 9.0 | 0.00 | 0.00 | 0.00 | 35 | 1011.2 |
| 20260504205503 | 75 | 241 | 3.0 | 10.0 | 0.00 | 0.00 | 0.00 | 37 | 1012.1 |
| 20260504205450 | 75 | 252 | 3.0 | 5.0 | 0.00 | 0.00 | 0.00 | 36 | 1011.0 |
| 20260504205024 | 75 | 244 | 3.0 | 10.0 | 0.00 | 0.00 | 0.00 | 36 | 1012.2 |
| 20260504204948 | 75 | 243 | 2.0 | 6.0 | 0.00 | 0.00 | 0.00 | 36 | 1011.1 |
| 20260504204503 | 76 | 243 | 2.0 | 9.0 | 0.00 | 0.00 | 0.00 | 35 | 1012.4 |
| 20260504204446 | 76 | 246 | 3.0 | 6.0 | 0.00 | 0.00 | 0.00 | 36 | 1011.3 |
| 20260504204024 | 75 | 242 | 3.0 | 14.0 | 0.00 | 0.00 | 0.00 | 36 | 1012.2 |
| 20260504203945 | 75 | 250 | 1.0 | 2.0 | 0.00 | 0.00 | 0.00 | 37 | 1011.2 |
| 20260504203524 | 74 | 241 | 5.0 | 16.0 | 0.00 | 0.00 | 0.00 | 36 | 1012.2 |
| 20260504203442 | 73 | 207 | 2.0 | 6.0 | 0.00 | 0.00 | 0.00 | 36 | 1011.3 |
| 20260504203003 | 74 | 245 | 6.0 | 17.0 | 0.00 | 0.00 | 0.00 | 35 | 1012.2 |
| 20260504202938 | 74 | 201 | 3.0 | 14.0 | 0.00 | 0.00 | 0.00 | 36 | 1011.3 |
| 20260504202503 | 73 | 249 | 7.0 | 17.0 | 0.00 | 0.00 | 0.00 | 35 | 1012.4 |
| 20260504202435 | 73 | 222 | 9.0 | 11.0 | 0.00 | 0.00 | 0.00 | 35 | 1011.5 |
| 20260504201931 | 74 | 274 | 7.0 | 10.0 | 0.00 | 0.00 | 0.00 | 35 | 1011.6 |
| 20260504201429 | 74 | 229 | 7.0 | 14.0 | 0.00 | 0.00 | 0.00 | 36 | 1011.6 |
| 20260504200927 | 74 | 225 | 5.0 | 15.0 | 0.00 | 0.00 | 0.00 | 35 | 1011.7 |
| 20260504200423 | 74 | 265 | 9.0 | 13.0 | 0.00 | 0.00 | 0.00 | 35 | 1011.8 |
| 20260504195920 | 75 | 244 | 5.0 | 8.0 | 0.00 | 0.00 | 0.00 | 35 | 1011.8 |
| 20260504195415 | 73 | 221 | 5.0 | 10.0 | 0.00 | 0.00 | 0.00 | 36 | 1012.1 |
| 20260504194912 | 73 | 178 | 5.0 | 9.0 | 0.00 | 0.00 | 0.00 | 35 | 1012.0 |
| 20260504194408 | 73 | 245 | 4.0 | 7.0 | 0.00 | 0.00 | 0.00 | 37 | 1012.1 |
| 20260504193904 | 74 | 229 | 5.0 | 14.0 | 0.00 | 0.00 | 0.00 | 35 | 1012.0 |
| 20260504193401 | 74 | 247 | 1.0 | 14.0 | 0.00 | 0.00 | 0.00 | 36 | 1012.2 |
| 20260504192900 | 75 | 213 | 2.0 | 8.0 | 0.00 | 0.00 | 0.00 | 35 | 1012.2 |
| 20260504192358 | 74 | 258 | 5.0 | 8.0 | 0.00 | 0.00 | 0.00 | 37 | 1012.4 |
| 20260504191856 | 73 | 247 | 1.0 | 5.0 | 0.00 | 0.00 | 0.00 | 36 | 1012.2 |
| 20260504191353 | 73 | 173 | 4.0 | 6.0 | 0.00 | 0.00 | 0.00 | 36 | 1012.3 |
| 20260504190848 | 73 | 235 | 6.0 | 10.0 | 0.00 | 0.00 | 0.00 | 36 | 1012.5 |
| 20260504190344 | 73 | 249 | 7.0 | 9.0 | 0.00 | 0.00 | 0.00 | 35 | 1012.4 |
| 20260504185841 | 73 | 228 | 2.0 | 13.0 | 0.00 | 0.00 | 0.00 | 37 | 1012.4 |
| 20260504185338 | 74 | 153 | 3.0 | 5.0 | 0.00 | 0.00 | 0.00 | 35 | 1012.4 |
| 20260504184834 | 73 | 242 | 1.0 | 3.0 | 0.00 | 0.00 | 0.00 | 37 | 1012.7 |
| 20260504184331 | 72 | 239 | 2.0 | 11.0 | 0.00 | 0.00 | 0.00 | 36 | 1012.7 |
| 20260504183826 | 72 | 231 | 2.0 | 11.0 | 0.00 | 0.00 | 0.00 | 37 | 1012.8 |
| 20260504183324 | 72 | 226 | 3.0 | 8.0 | 0.00 | 0.00 | 0.00 | 36 | 1012.9 |
| 20260504182822 | 73 | 226 | 4.0 | 7.0 | 0.00 | 0.00 | 0.00 | 35 | 1013.0 |
| 20260504182319 | 72 | 241 | 1.0 | 3.0 | 0.00 | 0.00 | 0.00 | 37 | 1012.9 |
| 20260504181816 | 72 | 254 | 5.0 | 9.0 | 0.00 | 0.00 | 0.00 | 35 | 1013.1 |
| 20260504181313 | 71 | 294 | 6.0 | 8.0 | 0.00 | 0.00 | 0.00 | 35 | 1013.0 |
| 20260504180812 | 71 | 228 | 11.0 | 16.0 | 0.00 | 0.00 | 0.00 | 35 | 1013.4 |
| 20260504180310 | 71 | 232 | 7.0 | 10.0 | 0.00 | 0.00 | 0.00 | 36 | 1013.3 |
| 20260504175808 | 72 | 242 | 3.0 | 10.0 | 0.00 | 0.00 | 0.00 | 35 | 1013.5 |
| 20260504175304 | 72 | 189 | 0.0 | 5.0 | 0.00 | 0.00 | 0.00 | 36 | 1013.4 |
| 20260504174803 | 72 | 247 | 3.0 | 6.0 | 0.00 | 0.00 | 0.00 | 36 | 1013.5 |
| 20260504174300 | 71 | 214 | 2.0 | 5.0 | 0.00 | 0.00 | 0.00 | 36 | 1013.5 |
| 20260504173756 | 72 | 240 | 7.0 | 10.0 | 0.00 | 0.00 | 0.00 | 37 | 1013.6 |
| 20260504173253 | 72 | 202 | 3.0 | 6.0 | 0.00 | 0.00 | 0.00 | 38 | 1013.5 |
| 20260504172750 | 71 | 248 | 3.0 | 13.0 | 0.00 | 0.00 | 0.00 | 36 | 1013.8 |
| 20260504172247 | 72 | 204 | 4.0 | 5.0 | 0.00 | 0.00 | 0.00 | 37 | 1013.7 |
| 20260504171743 | 71 | 273 | 4.0 | 11.0 | 0.00 | 0.00 | 0.00 | 36 | 1013.8 |
| 20260504171240 | 73 | 244 | 4.0 | 6.0 | 0.00 | 0.00 | 0.00 | 35 | 1014.0 |
| 20260504170737 | 72 | 233 | 0.0 | 6.0 | 0.00 | 0.00 | 0.00 | 39 | 1013.7 |
| 20260504170234 | 72 | 273 | 4.0 | 7.0 | 0.00 | 0.00 | 0.00 | 36 | 1014.1 |
| 20260504160153 | 69 | 238 | 1.0 | 3.0 | 0.00 | 0.00 | 0.00 | 41 | 1015.1 |
| 20260504151120 | 68 | 254 | 2.0 | 10.0 | 0.00 | 0.00 | 0.00 | 46 | 1015.1 |
| 20260504150618 | 67 | 275 | 4.0 | 10.0 | 0.00 | 0.00 | 0.00 | 46 | 1015.4 |
| 20260504150115 | 68 | 228 | 2.0 | 5.0 | 0.00 | 0.00 | 0.00 | 46 | 1015.3 |
| 20260504141043 | 63 | 226 | 3.0 | 8.0 | 0.00 | 0.00 | 0.00 | 53 | 1015.5 |
| 20260504141003 | 63 | 253 | 3.0 | 11.0 | 0.00 | 0.00 | 0.00 | 53 | 1016.2 |
| 20260504140540 | 64 | 256 | 7.0 | 10.0 | 0.00 | 0.00 | 0.00 | 53 | 1015.8 |
| 20260504140503 | 63 | 246 | 4.0 | 13.0 | 0.00 | 0.00 | 0.00 | 55 | 1016.4 |
| 20260504130504 | 58 | 252 | 4.0 | 9.0 | 0.00 | 0.00 | 0.00 | 64 | 1016.1 |
| 20260504110503 | 49 | 252 | 1.0 | 4.0 | 0.00 | 0.00 | 0.00 | 80 | 1017.4 |
| 20260504110351 | 49 | 255 | 1.0 | 2.0 | 0.00 | 0.00 | 0.00 | 80 | 1016.3 |
| 20260504100503 | 46 | 257 | 0.0 | 1.0 | 0.00 | 0.00 | 0.00 | 81 | 1017.6 |
| 20260504100308 | 46 | 253 | 0.0 | 0.0 | 0.00 | 0.00 | 0.00 | 81 | 1016.6 |
| 20260504081702 | 46 | 249 | 0.0 | 0.0 | 0.00 | 0.00 | 0.00 | 76 | 1016.8 |
| 20260504081503 | 47 | 250 | 1.0 | 2.0 | 0.00 | 0.00 | 0.00 | 76 | 1017.6 |
| 20260504081158 | 47 | 249 | 0.0 | 2.0 | 0.00 | 0.00 | 0.00 | 76 | 1016.6 |
| 20260504081003 | 47 | 254 | 1.0 | 2.0 | 0.00 | 0.00 | 0.00 | 76 | 1017.3 |
| 20260504080655 | 47 | 268 | 2.0 | 2.0 | 0.00 | 0.00 | 0.00 | 76 | 1016.7 |
| 20260504080503 | 47 | 252 | 1.0 | 2.0 | 0.00 | 0.00 | 0.00 | 76 | 1017.4 |
| 20260504080152 | 47 | 257 | 1.0 | 2.0 | 0.00 | 0.00 | 0.00 | 76 | 1016.7 |
| 20260504070119 | 48 | 251 | 1.0 | 2.0 | 0.00 | 0.00 | 0.00 | 72 | 1016.4 |
| 20260504050508 | 49 | 243 | 2.0 | 5.0 | 0.00 | 0.00 | 0.00 | 65 | 1016.3 |
| 20260504050503 | 49 | 251 | 2.0 | 4.0 | 0.00 | 0.00 | 0.00 | 65 | 1016.9 |
| 20260504050005 | 49 | 226 | 2.0 | 5.0 | 0.00 | 0.00 | 0.00 | 64 | 1016.4 |
| 20260504050003 | 49 | 249 | 2.0 | 4.0 | 0.00 | 0.00 | 0.00 | 64 | 1017.0 |
| 20260504045503 | 49 | 250 | 2.0 | 4.0 | 0.00 | 0.00 | 0.00 | 64 | 1017.3 |
| 20260504045500 | 49 | 254 | 3.0 | 5.0 | 0.00 | 0.00 | 0.00 | 64 | 1016.2 |
| 20260504045004 | 49 | 253 | 1.0 | 3.0 | 0.00 | 0.00 | 0.00 | 63 | 1017.2 |
| 20260504044957 | 50 | 226 | 3.0 | 3.0 | 0.00 | 0.00 | 0.00 | 63 | 1016.5 |
| 20260504044504 | 50 | 244 | 2.0 | 7.0 | 0.00 | 0.00 | 0.00 | 63 | 1017.1 |
| 20260504044454 | 50 | 256 | 0.0 | 1.0 | 0.00 | 0.00 | 0.00 | 63 | 1016.3 |
| 20260504044024 | 50 | 243 | 3.0 | 7.0 | 0.00 | 0.00 | 0.00 | 62 | 1017.3 |
| 20260504043952 | 50 | 264 | 4.0 | 7.0 | 0.00 | 0.00 | 0.00 | 62 | 1016.5 |
| 20260504043503 | 50 | 248 | 2.0 | 4.0 | 0.00 | 0.00 | 0.00 | 62 | 1017.0 |
| 20260504043449 | 50 | 233 | 3.0 | 3.0 | 0.00 | 0.00 | 0.00 | 62 | 1016.3 |
| 20260504043003 | 50 | 249 | 2.0 | 3.0 | 0.00 | 0.00 | 0.00 | 61 | 1016.8 |
| 20260504042946 | 50 | 249 | 2.0 | 2.0 | 0.00 | 0.00 | 0.00 | 61 | 1016.1 |
| 20260504042503 | 51 | 246 | 2.0 | 3.0 | 0.00 | 0.00 | 0.00 | 60 | 1016.9 |
| 20260504042442 | 51 | 256 | 2.0 | 2.0 | 0.00 | 0.00 | 0.00 | 59 | 1016.2 |
| 20260504042003 | 51 | 248 | 2.0 | 3.0 | 0.00 | 0.00 | 0.00 | 58 | 1016.9 |
| 20260504041939 | 51 | 252 | 2.0 | 3.0 | 0.00 | 0.00 | 0.00 | 58 | 1016.2 |
| 20260504041503 | 51 | 251 | 2.0 | 6.0 | 0.00 | 0.00 | 0.00 | 58 | 1016.9 |
| 20260504041436 | 51 | 245 | 2.0 | 3.0 | 0.00 | 0.00 | 0.00 | 58 | 1016.1 |
| 20260504041003 | 51 | 250 | 3.0 | 6.0 | 0.00 | 0.00 | 0.00 | 57 | 1016.7 |
| 20260504040931 | 51 | 263 | 1.0 | 3.0 | 0.00 | 0.00 | 0.00 | 57 | 1016.0 |
| 20260504040524 | 51 | 248 | 3.0 | 6.0 | 0.00 | 0.00 | 0.00 | 57 | 1017.1 |
| 20260504040429 | 51 | 275 | 3.0 | 3.0 | 0.00 | 0.00 | 0.00 | 56 | 1016.0 |
| 20260504040005 | 51 | 248 | 2.0 | 4.0 | 0.00 | 0.00 | 0.00 | 57 | 1016.7 |
| 20260504035925 | 51 | 256 | 1.0 | 3.0 | 0.00 | 0.00 | 0.00 | 57 | 1015.9 |
| 20260504035503 | 51 | 252 | 2.0 | 4.0 | 0.00 | 0.00 | 0.00 | 57 | 1016.7 |
| 20260504035423 | 51 | 259 | 3.0 | 3.0 | 0.00 | 0.00 | 0.00 | 57 | 1015.9 |
| 20260504035003 | 51 | 251 | 1.0 | 6.0 | 0.00 | 0.00 | 0.00 | 57 | 1016.7 |
| 20260504034919 | 51 | 227 | 2.0 | 5.0 | 0.00 | 0.00 | 0.00 | 57 | 1015.8 |
| 20260504034503 | 50 | 249 | 1.0 | 6.0 | 0.00 | 0.00 | 0.00 | 57 | 1016.4 |
| 20260504034417 | 50 | 256 | 3.0 | 6.0 | 0.00 | 0.00 | 0.00 | 57 | 1015.7 |
| 20260504034003 | 51 | 250 | 2.0 | 4.0 | 0.00 | 0.00 | 0.00 | 57 | 1016.5 |
| 20260504033914 | 51 | 257 | 2.0 | 2.0 | 0.00 | 0.00 | 0.00 | 58 | 1015.7 |
| 20260504033503 | 50 | 252 | 1.0 | 3.0 | 0.00 | 0.00 | 0.00 | 58 | 1016.8 |
| 20260504033412 | 50 | 243 | 2.0 | 3.0 | 0.00 | 0.00 | 0.00 | 58 | 1015.8 |
| 20260504033003 | 50 | 260 | 0.0 | 2.0 | 0.00 | 0.00 | 0.00 | 59 | 1016.5 |
| 20260504032908 | 50 | 247 | 0.0 | 0.0 | 0.00 | 0.00 | 0.00 | 59 | 1015.8 |
| 20260504032503 | 50 | 260 | 0.0 | 2.0 | 0.00 | 0.00 | 0.00 | 59 | 1016.4 |
| 20260504032405 | 50 | 252 | 0.0 | 0.0 | 0.00 | 0.00 | 0.00 | 59 | 1015.7 |
| 20260504032003 | 49 | 259 | 0.0 | 2.0 | 0.00 | 0.00 | 0.00 | 60 | 1016.6 |
| 20260504031902 | 49 | 259 | 1.0 | 2.0 | 0.00 | 0.00 | 0.00 | 60 | 1015.6 |
| 20260504031503 | 49 | 0 | 0.0 | 0.0 | 0.00 | 0.00 | 0.00 | 60 | 1016.7 |
| 20260504031359 | 50 | 246 | 0.0 | 0.0 | 0.00 | 0.00 | 0.00 | 60 | 1015.7 |
| 20260504031003 | 49 | 0 | 0.0 | 0.0 | 0.00 | 0.00 | 0.00 | 60 | 1016.5 |
| 20260504030855 | 49 | 261 | 0.0 | 0.0 | 0.00 | 0.00 | 0.00 | 61 | 1015.5 |
| 20260504030503 | 49 | 0 | 0.0 | 0.0 | 0.00 | 0.00 | 0.00 | 62 | 1016.4 |
| 20260504030353 | 49 | 251 | 0.0 | 0.0 | 0.00 | 0.00 | 0.00 | 62 | 1015.8 |
| 20260504030003 | 49 | 0 | 0.0 | 0.0 | 0.00 | 0.00 | 0.00 | 62 | 1016.6 |
| 20260504025848 | 49 | 252 | 0.0 | 0.0 | 0.00 | 0.00 | 0.00 | 62 | 1015.6 |
| 20260504025503 | 49 | 0 | 0.0 | 0.0 | 0.00 | 0.00 | 0.00 | 62 | 1016.3 |
| 20260504025345 | 49 | 255 | 0.0 | 0.0 | 0.00 | 0.00 | 0.00 | 62 | 1015.6 |
| 20260504025003 | 49 | 0 | 0.0 | 0.0 | 0.00 | 0.00 | 0.00 | 63 | 1016.6 |
| 20260504024842 | 49 | 250 | 0.0 | 0.0 | 0.00 | 0.00 | 0.00 | 62 | 1015.8 |
| 20260504024503 | 49 | 0 | 0.0 | 0.0 | 0.00 | 0.00 | 0.00 | 63 | 1016.5 |
| 20260504024338 | 49 | 257 | 0.0 | 0.0 | 0.00 | 0.00 | 0.00 | 63 | 1015.7 |
| 20260504024003 | 49 | 0 | 0.0 | 0.0 | 0.00 | 0.00 | 0.00 | 64 | 1016.7 |
| 20260504023836 | 49 | 257 | 0.0 | 0.0 | 0.00 | 0.00 | 0.00 | 63 | 1015.5 |
| 20260504023503 | 49 | 0 | 0.0 | 0.0 | 0.00 | 0.00 | 0.00 | 62 | 1016.7 |
| 20260504023333 | 49 | 251 | 0.0 | 0.0 | 0.00 | 0.00 | 0.00 | 62 | 1015.5 |
| 20260504023003 | 50 | 0 | 0.0 | 0.0 | 0.00 | 0.00 | 0.00 | 62 | 1016.5 |
| 20260504022828 | 50 | 258 | 0.0 | 0.0 | 0.00 | 0.00 | 0.00 | 61 | 1015.8 |